Location: STAR School
(35.3054°N, 111.2976°W)
Time: 13:06:50
(UTC-07:00)

N. Korean satellite - Pass Details

Date: 21 October 2019
Orbit: 456 x 506 km, 97.2° (Epoch: 21 November)

Event Time Altitude Azimuth Distance (km) Brightness Sun altitude
Rises 05:16:24 0° 35° (NE) 2,565 10.7 -17.0°
Reaches altitude 10° 05:19:26 10° 64° (ENE) 1,689 10.3 -16.4°
Maximum altitude 05:21:12 13° 93° (E) 1,507 10.3 -16.0°
Drops below altitude 10° 05:22:58 10° 123° (ESE) 1,694 10.2 -15.7°
Sets 05:26:01 0° 151° (SSE) 2,579 10.7 -15.1°
